| time (UTC) | temp F | wind direction | speed knots | gust knots | rain 1hr in | rain 24hr in | rain mn in | humidity % | barometer mb |
| 20260506034542 | 52 | 67 | 9.6 | 13.0 | 0.00 | 0.00 | 0.00 | 74 | 1011.8 |
| 20260506033048 | 52 | 62 | 7.8 | 13.9 | 0.00 | 0.00 | 0.00 | 74 | 1011.5 |
| 20260506031556 | 52 | 63 | 9.6 | 13.9 | 0.00 | 0.00 | 0.00 | 73 | 1011.4 |
| 20260506030058 | 53 | 36 | 8.7 | 13.9 | 0.00 | 0.00 | 0.00 | 72 | 1011.5 |
| 20260506024545 | 53 | 44 | 10.4 | 14.8 | 0.00 | 0.00 | 0.00 | 71 | 1011.3 |
| 20260506023042 | 53 | 34 | 9.6 | 14.8 | 0.00 | 0.00 | 0.00 | 70 | 1011.1 |
| 20260506021547 | 54 | 53 | 11.3 | 14.8 | 0.00 | 0.00 | 0.00 | 70 | 1010.7 |
| 20260506020046 | 54 | 52 | 8.7 | 14.8 | 0.00 | 0.00 | 0.00 | 70 | 1010.7 |
| 20260506014558 | 54 | 55 | 13.0 | 15.6 | 0.00 | 0.00 | 0.00 | 69 | 1010.4 |
| 20260506013046 | 55 | 41 | 9.6 | 16.5 | 0.00 | 0.00 | 0.00 | 68 | 1010.3 |
| 20260506011540 | 55 | 25 | 9.6 | 15.6 | 0.00 | 0.00 | 0.00 | 68 | 1009.8 |
| 20260506010058 | 56 | 41 | 10.4 | 15.6 | 0.00 | 0.00 | 0.00 | 68 | 1009.6 |
| 20260506004620 | 56 | 28 | 10.4 | 15.6 | 0.00 | 0.00 | 0.00 | 68 | 1009.4 |
| 20260506003051 | 56 | 40 | 13.0 | 16.5 | 0.00 | 0.00 | 0.00 | 67 | 1009.3 |
| 20260506001544 | 57 | 51 | 10.4 | 15.6 | 0.00 | 0.00 | 0.00 | 67 | 1009.2 |
| 20260506000045 | 57 | 38 | 11.3 | 16.5 | 0.00 | 0.00 | 0.00 | 68 | 1009.1 |
| 20260505234611 | 57 | 5 | 11.3 | 15.6 | 0.00 | 0.00 | 0.00 | 68 | 1009.2 |
| 20260505233045 | 58 | 29 | 13.0 | 16.5 | 0.00 | 0.00 | 0.00 | 67 | 1009.1 |
| 20260505231546 | 58 | 17 | 10.4 | 15.6 | 0.00 | 0.00 | 0.00 | 66 | 1008.7 |
| 20260505230047 | 59 | 355 | 12.2 | 16.5 | 0.00 | 0.00 | 0.00 | 64 | 1008.8 |
| 20260505224549 | 59 | 5 | 11.3 | 15.6 | 0.00 | 0.00 | 0.00 | 64 | 1009.0 |
| 20260505223100 | 60 | 5 | 10.4 | 16.5 | 0.00 | 0.00 | 0.00 | 64 | 1009.0 |
| 20260505221559 | 61 | 5 | 12.2 | 16.5 | 0.00 | 0.00 | 0.00 | 62 | 1009.1 |
| 20260505220050 | 63 | 11 | 7.0 | 14.8 | 0.00 | 0.00 | 0.00 | 60 | 1008.9 |
| 20260505214547 | 64 | 5 | 7.8 | 14.8 | 0.00 | 0.00 | 0.00 | 60 | 1008.8 |
| 20260505213048 | 65 | 15 | 7.0 | 14.8 | 0.00 | 0.00 | 0.00 | 58 | 1009.0 |
| 20260505211554 | 65 | 11 | 7.0 | 13.9 | 0.00 | 0.00 | 0.00 | 58 | 1008.9 |
| 20260505210046 | 65 | 18 | 8.7 | 13.0 | 0.00 | 0.00 | 0.00 | 57 | 1008.7 |
| 20260505204553 | 66 | 355 | 10.4 | 15.6 | 0.00 | 0.00 | 0.00 | 56 | 1008.7 |
| 20260505203045 | 67 | 24 | 9.6 | 14.8 | 0.00 | 0.00 | 0.00 | 54 | 1008.3 |
| 20260505201554 | 67 | 26 | 9.6 | 13.9 | 0.00 | 0.00 | 0.00 | 53 | 1008.0 |
| 20260505200056 | 67 | 14 | 6.1 | 13.9 | 0.00 | 0.00 | 0.00 | 54 | 1008.2 |
| 20260505194544 | 67 | 15 | 8.7 | 13.0 | 0.00 | 0.00 | 0.00 | 53 | 1008.4 |
| 20260505193049 | 68 | 33 | 9.6 | 13.9 | 0.00 | 0.00 | 0.00 | 53 | 1008.2 |
| 20260505191547 | 67 | 360 | 7.8 | 14.8 | 0.00 | 0.00 | 0.00 | 54 | 1008.1 |
| 20260505190050 | 69 | 352 | 8.7 | 15.6 | 0.00 | 0.00 | 0.00 | 52 | 1008.0 |
| 20260505184545 | 68 | 360 | 12.2 | 16.5 | 0.00 | 0.00 | 0.00 | 54 | 1007.9 |
| 20260505183048 | 67 | 324 | 10.4 | 15.6 | 0.00 | 0.00 | 0.00 | 56 | 1007.7 |
| 20260505181544 | 68 | 312 | 13.0 | 15.6 | 0.00 | 0.00 | 0.00 | 55 | 1007.7 |
| 20260505180053 | 69 | 315 | 10.4 | 15.6 | 0.00 | 0.00 | 0.00 | 56 | 1008.1 |
| 20260505174549 | 68 | 333 | 10.4 | 15.6 | 0.00 | 0.00 | 0.00 | 57 | 1007.8 |
| 20260505173048 | 68 | 340 | 9.6 | 15.6 | 0.00 | 0.00 | 0.00 | 57 | 1007.6 |
| 20260505171543 | 69 | 350 | 10.4 | 14.8 | 0.00 | 0.00 | 0.00 | 56 | 1007.4 |
| 20260505170049 | 69 | 326 | 11.3 | 16.5 | 0.00 | 0.00 | 0.00 | 57 | 1007.4 |
| 20260505164546 | 69 | 342 | 12.2 | 15.6 | 0.00 | 0.00 | 0.00 | 59 | 1006.9 |
| 20260505163045 | 68 | 320 | 10.4 | 15.6 | 0.00 | 0.00 | 0.00 | 61 | 1006.5 |
| 20260505161544 | 68 | 352 | 9.6 | 16.5 | 0.00 | 0.00 | 0.00 | 63 | 1006.1 |
| 20260505153048 | 71 | 321 | 13.0 | 16.5 | 0.00 | 0.00 | 0.00 | 62 | 1005.5 |
| 20260505151546 | 71 | 338 | 13.0 | 16.5 | 0.00 | 0.00 | 0.00 | 63 | 1005.1 |
| 20260505124548 | 69 | 226 | 6.1 | 8.7 | 0.00 | 0.00 | 0.00 | 68 | 1001.9 |
| 20260505123042 | 69 | 232 | 5.2 | 9.6 | 0.00 | 0.00 | 0.00 | 68 | 1001.4 |
| 20260505121547 | 69 | 192 | 5.2 | 8.7 | 0.00 | 0.00 | 0.00 | 68 | 1001.2 |
| 20260505120051 | 69 | 207 | 6.1 | 7.8 | 0.00 | 0.00 | 0.00 | 68 | 1001.4 |
| 20260505114547 | 69 | 200 | 6.1 | 8.7 | 0.00 | 0.00 | 0.00 | 67 | 1001.1 |
| 20260505113041 | 69 | 213 | 7.8 | 9.6 | 0.00 | 0.00 | 0.00 | 66 | 1000.5 |
| 20260505111544 | 70 | 215 | 7.8 | 10.4 | 0.00 | 0.00 | 0.00 | 65 | 1000.4 |
| 20260505101546 | 72 | 205 | 6.1 | 8.7 | 0.00 | 0.00 | 0.00 | 62 | 1000.1 |
| 20260505100048 | 72 | 203 | 6.1 | 8.7 | 0.00 | 0.00 | 0.00 | 61 | 1000.2 |
| 20260505094545 | 72 | 204 | 5.2 | 7.8 | 0.00 | 0.00 | 0.00 | 61 | 1000.0 |
| 20260505093045 | 72 | 193 | 6.1 | 8.7 | 0.00 | 0.00 | 0.00 | 61 | 1000.1 |
| 20260505091552 | 72 | 194 | 5.2 | 7.8 | 0.00 | 0.00 | 0.00 | 60 | 1000.1 |
| 20260505090050 | 73 | 211 | 6.1 | 8.7 | 0.00 | 0.00 | 0.00 | 60 | 1000.3 |
| 20260505084548 | 73 | 210 | 6.1 | 9.6 | 0.00 | 0.00 | 0.00 | 60 | 1000.4 |
| 20260505083041 | 73 | 198 | 5.2 | 7.8 | 0.00 | 0.00 | 0.00 | 60 | 1000.4 |
| 20260505081543 | 73 | 208 | 5.2 | 9.6 | 0.00 | 0.00 | 0.00 | 59 | 1000.4 |
| 20260505080053 | 73 | 217 | 6.1 | 9.6 | 0.00 | 0.00 | 0.00 | 60 | 1000.5 |
| 20260505074544 | 73 | 213 | 6.1 | 8.7 | 0.00 | 0.00 | 0.00 | 60 | 1000.5 |
| 20260505073053 | 74 | 196 | 6.1 | 8.7 | 0.00 | 0.00 | 0.00 | 59 | 1000.7 |
| 20260505071545 | 74 | 211 | 6.1 | 10.4 | 0.00 | 0.00 | 0.00 | 59 | 1000.8 |
| 20260505070053 | 74 | 205 | 7.8 | 11.3 | 0.00 | 0.00 | 0.00 | 59 | 1001.0 |
| 20260505064551 | 75 | 215 | 7.0 | 10.4 | 0.00 | 0.00 | 0.00 | 59 | 1001.2 |
| 20260505063109 | 75 | 203 | 7.8 | 11.3 | 0.00 | 0.00 | 0.00 | 59 | 1001.2 |
| 20260505061556 | 75 | 207 | 7.0 | 10.4 | 0.00 | 0.00 | 0.00 | 60 | 1001.3 |
| 20260505060049 | 75 | 196 | 6.1 | 9.6 | 0.00 | 0.00 | 0.00 | 61 | 1001.3 |
| 20260505054553 | 76 | 177 | 5.2 | 13.0 | 0.00 | 0.00 | 0.00 | 62 | 1001.4 |
| 20260505053055 | 76 | 188 | 5.2 | 8.7 | 0.00 | 0.00 | 0.00 | 62 | 1001.4 |
| 20260505051547 | 76 | 204 | 5.2 | 10.4 | 0.00 | 0.00 | 0.00 | 62 | 1001.6 |
| 20260505041555 | 78 | 180 | 7.8 | 13.0 | 0.00 | 0.00 | 0.00 | 60 | 1001.9 |
| 20260505040055 | 78 | 180 | 8.7 | 14.8 | 0.00 | 0.00 | 0.00 | 60 | 1001.9 |